Weather History for Kaneohe MCBH, HI

Change the Weather History Date:

Sunday, February 16, 2014

  Actual Average Record
Temperature  
Mean Temperature 74 °F -  
Max Temperature 77 °F 75 °F 80 °F (2011)
Min Temperature 69 °F 67 °F 60 °F (2008)
Cooling Degree Days 9    
Growing Degree Days 24 (Base 50)    
Moisture  
Dew Point 67 °F    
Average Humidity 82    
Maximum Humidity 88    
Minimum Humidity 74    
Precipitation  
Precipitation 0.10 in - - ()
Sea Level Pressure  
Sea Level Pressure 29.93 in    
Wind  
Wind Speed 4 mph (SE)    
Max Wind Speed 9 mph    
Max Gust Speed 18 mph    
Visibility 6 miles    
Events Rain    
Averages and records for this station are not official NWS values.
T = Trace of Precipitation, MM = Missing Value Source: NWS Daily Summary

Daily Weather History Graph

Daily Weather History Graph

Search for Another Location

Airport:

Trip Planner

Search our weather history database for the weather conditions in past years. The results will help you decide how hot, cold, wet, or windy it might be!

Date:

Astronomy

Feb. 16, 2014 Rise Set
Actual Time 7:00 AM HST 6:29 PM HST
Civil Twilight 6:38 AM HST 6:52 PM HST
Nautical Twilight 6:12 AM HST 7:18 PM HST
Astronomical Twilight 5:46 AM HST 7:44 PM HST
Moon 8:15 PM HST (2/16) 7:54 AM HST (2/16)
Length of Visible Light 12h 14m
Length of Day
11h 28m
Waning Gibbous, 97% of the Moon is Illuminated
Feb 16
Waning Gibbous
Feb 22
Last Quarter
Feb 28
New
Mar 8
First Quarter
Mar 16
Full

Hourly Weather History & Observations

Time (HST) Temp. Dew Point Humidity Pressure Visibility Wind Dir Wind Speed Gust Speed Precip Events Conditions
12:19 AM 71.6 °F 68.0 °F 88% 29.97 in 6.2 mi Variable 4.6 mph - N/A   Mostly Cloudy
12:57 AM 71.6 °F 68.0 °F 88% 29.96 in 7.0 mi Calm Calm - N/A Rain Light Rain
1:39 AM 71.6 °F 66.2 °F 83% 29.96 in 6.0 mi ESE 5.8 mph - N/A Rain Light Rain
1:47 AM 71.6 °F 66.2 °F 83% 29.95 in 6.0 mi ESE 4.6 mph - N/A Rain Light Rain
1:57 AM 71.6 °F 66.9 °F 85% 29.94 in 6.0 mi ESE 6.9 mph - N/A Rain Light Rain
2:57 AM 71.6 °F 66.9 °F 85% 29.90 in 8.0 mi East 9.2 mph - N/A   Scattered Clouds
3:28 AM 71.6 °F 66.2 °F 83% 29.92 in 6.0 mi East 6.9 mph - N/A   Haze
3:57 AM 71.6 °F 66.9 °F 85% 29.91 in 7.0 mi ESE 8.1 mph - N/A   Overcast
4:44 AM 71.6 °F 66.2 °F 83% 29.93 in 6.2 mi East 3.5 mph - N/A   Mostly Cloudy
4:57 AM 71.6 °F 66.9 °F 85% 29.92 in 7.0 mi Variable 3.5 mph - N/A   Mostly Cloudy
5:04 AM 71.6 °F 66.2 °F 83% 29.93 in 6.2 mi Variable 5.8 mph - N/A   Partly Cloudy
5:57 AM 71.6 °F 66.9 °F 85% 29.91 in 7.0 mi ESE 5.8 mph - N/A   Scattered Clouds
6:57 AM 71.6 °F 66.9 °F 85% 29.94 in 7.0 mi ESE 3.5 mph - N/A   Mostly Cloudy
7:57 AM 73.4 °F 66.9 °F 80% 29.96 in 7.0 mi Calm Calm - N/A   Mostly Cloudy
8:57 AM 73.4 °F 68.0 °F 83% 29.98 in 7.0 mi Calm Calm - N/A Rain Light Rain
9:57 AM 73.4 °F 68.0 °F 83% 30.01 in 5.0 mi Calm Calm - N/A Rain Light Rain
10:54 AM 73.4 °F 69.8 °F 88% 30.00 in 2.5 mi Calm Calm - N/A Rain Light Rain
10:57 AM 73.4 °F 69.1 °F 86% 29.99 in 2.5 mi Calm Calm - N/A Rain Light Rain
11:04 AM - - N/A% 30.00 in 2.5 mi Calm Calm - 0.01 in Rain Light Rain
11:57 AM 73.4 °F 69.1 °F 86% 29.94 in 4.0 mi Variable 3.5 mph - 0.02 in Rain Light Rain
12:57 PM 75.2 °F 68.0 °F 78% 29.93 in 6.0 mi ESE 5.8 mph - 0.01 in Rain Light Rain
1:04 PM - - N/A% 29.94 in 5.0 mi SE 4.6 mph - 0.00 in Rain Light Rain
1:57 PM 73.4 °F 66.9 °F 80% 29.91 in 1.0 mi Calm Calm - 0.02 in Rain Light Rain
2:04 PM 75.2 °F 68.0 °F 78% 29.92 in - Calm Calm - 0.00 in Rain Light Rain
2:57 PM 75.2 °F 68.0 °F 78% 29.89 in 4.0 mi ESE 6.9 mph - 0.02 in Rain Light Rain
3:57 PM 75.2 °F 68.0 °F 78% 29.88 in 4.0 mi ESE 8.1 mph 18.4 mph 0.02 in Rain Light Rain
4:57 PM 75.2 °F 68.0 °F 78% 29.89 in 5.0 mi SE 9.2 mph 16.1 mph 0.00 in Rain Light Rain
5:57 PM 75.2 °F 68.0 °F 78% 29.91 in 5.0 mi ESE 5.8 mph - 0.00 in Rain Light Rain
6:57 PM 75.2 °F 68.0 °F 78% 29.92 in 6.0 mi Calm Calm - 0.00 in Rain Light Rain
7:04 PM - - N/A% 29.93 in 6.0 mi Calm Calm - 0.00 in Rain Light Rain
7:57 PM 77.0 °F 68.0 °F 74% 29.91 in 7.0 mi South 3.5 mph - 0.00 in   Partly Cloudy
8:57 PM 75.2 °F 68.0 °F 78% 29.88 in 7.0 mi South 3.5 mph - 0.01 in   Partly Cloudy
9:57 PM 73.4 °F 68.0 °F 83% 29.91 in 8.0 mi ESE 8.1 mph - 0.00 in   Mostly Cloudy
10:57 PM 71.6 °F 66.9 °F 85% 29.91 in 7.0 mi SSW 4.6 mph - 0.00 in Rain Light Rain
11:57 PM 69.8 °F 64.9 °F 84% 29.91 in 10.0 mi South 4.6 mph - 0.00 in Rain Light Rain